Weather History for KADM - November, 2012

Change the Weather History Date:

Sunday, November 4, 2012

  Actual Average Record
Temperature  
Mean Temperature 55 °F -  
Max Temperature 66 °F 64 °F 84 °F (2005)
Min Temperature 44 °F 46 °F 28 °F (2011)
Degree Days  
Heating Degree Days 10    
Growing Degree Days 5 (Base 50)    
Moisture  
Dew Point 39 °F    
Average Humidity 70    
Maximum Humidity 100    
Minimum Humidity 49    
Precipitation  
Precipitation 0.00 in - - ()
Sea Level Pressure  
Sea Level Pressure 30.14 in    
Wind  
Wind Speed 5 mph (North)    
Max Wind Speed 9 mph    
Max Gust Speed -    
Visibility 10 miles    
Events      
Averages and records for this station are not official NWS values.
T = Trace of Precipitation, MM = Missing Value Source: NWS Daily Summary

Daily Weather History Graph

Daily Weather History Graph

Search for Another Location

Airport or City:

Trip Planner

Search our weather history database for the weather conditions in past years. The results will help you decide how hot, cold, wet, or windy it might be!

Date:

Astronomy

Nov. 04, 2012 Rise Set
Actual Time 6:51 AM CST 5:31 PM CST
Civil Twilight 6:25 AM CST 5:57 PM CST
Nautical Twilight 5:55 AM CST 6:27 PM CST
Astronomical Twilight 5:25 AM CST 6:56 PM CST
Moon 10:12 PM CST 11:32 AM CST
Length of Visible Light 11h 32m
Length of Day
10h 40m
Waning Gibbous, 72% of the Moon is Illuminated
Nov 4
Waning Gibbous
Nov 6
Last Quarter
Nov 13
New
Nov 20
First Quarter
Nov 28
Full

Hourly Weather History & Observations

Time (CST) Temp. Windchill Dew Point Humidity Pressure Visibility Wind Dir Wind Speed Gust Speed Precip Events Conditions
12:15 AM 51.8 °F - 37.4 °F 58% 30.13 in 10.0 mi North 6.9 mph - N/A   Clear
12:35 AM 50.0 °F - 37.4 °F 62% 30.13 in 10.0 mi North 6.9 mph - N/A   Clear
12:55 AM 50.0 °F - 37.4 °F 62% 30.13 in 10.0 mi NNE 3.5 mph - N/A   Clear
1:15 AM 48.2 °F - 39.2 °F 71% 30.14 in 10.0 mi Calm Calm - N/A   Clear
1:35 AM 48.2 °F - 37.4 °F 66% 30.14 in 10.0 mi North 3.5 mph - N/A   Clear
1:55 AM 46.4 °F - 37.4 °F 71% 30.14 in 10.0 mi Calm Calm - N/A   Scattered Clouds
1:15 AM 50.0 °F - 39.2 °F 66% 30.14 in 10.0 mi Calm Calm - N/A   Mostly Cloudy
1:35 AM 50.0 °F - 41.0 °F 71% 30.14 in 10.0 mi Calm Calm - N/A   Mostly Cloudy
1:55 AM 50.0 °F - 41.0 °F 71% 30.14 in 10.0 mi North 5.8 mph - N/A   Scattered Clouds
2:15 AM 51.8 °F - 41.0 °F 67% 30.14 in 10.0 mi North 4.6 mph - N/A   Scattered Clouds
2:35 AM 51.8 °F - 39.2 °F 62% 30.14 in 10.0 mi North 8.1 mph - N/A   Scattered Clouds
2:55 AM 50.0 °F - 39.2 °F 66% 30.15 in 10.0 mi North 9.2 mph - N/A   Scattered Clouds
3:15 AM 50.0 °F - 37.4 °F 62% 30.15 in 10.0 mi North 6.9 mph - N/A   Scattered Clouds
3:35 AM 46.4 °F 42.4 °F 37.4 °F 71% 30.15 in 10.0 mi North 8.1 mph - N/A   Clear
3:55 AM 46.4 °F 45.2 °F 37.4 °F 71% 30.16 in 10.0 mi NNW 3.5 mph - N/A   Scattered Clouds
4:15 AM 46.4 °F 42.4 °F 39.2 °F 76% 30.15 in 10.0 mi North 8.1 mph - N/A   Scattered Clouds
4:35 AM 46.4 °F 43.5 °F 37.4 °F 71% 30.14 in 10.0 mi North 5.8 mph - N/A   Scattered Clouds
4:55 AM 46.4 °F 42.4 °F 37.4 °F 71% 30.14 in 10.0 mi North 8.1 mph - N/A   Clear
5:15 AM 44.6 °F 42.2 °F 37.4 °F 76% 30.14 in 10.0 mi North 4.6 mph - N/A   Clear
5:35 AM 44.6 °F 43.1 °F 37.4 °F 76% 30.15 in 10.0 mi North 3.5 mph - N/A   Clear
10:55 AM 66.2 °F - 46.4 °F 49% 30.17 in 10.0 mi East 5.8 mph - N/A   Clear
10:35 PM 46.4 °F - 46.4 °F 100% 30.09 in 7.0 mi Calm Calm - N/A   Clear
10:55 PM 46.4 °F - 46.4 °F 100% 30.08 in 10.0 mi Calm Calm - N/A   Clear